Torna al catalogo

STARLINK-11101

AttivoComunicazioniVLEO
NORAD 59715·PAYLOAD·🇺🇸 United States

Lanciato May 10, 2024 da Vandenberg Space Force Base

Loading…

Prossimi Passaggi (prossime 24 ore)

TLE

AggiornatoSource: CelesTrak SupGP

Epoca: Sep 15, 2026, 02:55 UTC

1 59715C 24088H   26258.12201389  .00072776  00000+0  59911-3 0  2582
2 59715  53.1557 112.3470 0001094  96.4651 347.9174 15.69687997    11

Traccia STARLINK-11101 in tempo reale con AllMySat

Download on the App Store